TimeCDT,TemperatureF,Dew PointF,Humidity,Sea Level PressureIn,VisibilityMPH,Wind Direction,Wind SpeedMPH,Gust SpeedMPH,PrecipitationIn,Events,Conditions,WindDirDegrees,DateUTC
12:53 AM,37.0,26.1,65,30.03,10.0,NNW,8.1,-,N/A,,Mostly Cloudy,330,2013-04-24 05:53:00
1:53 AM,36.0,27.0,70,30.03,10.0,North,4.6,-,N/A,,Clear,350,2013-04-24 06:53:00
2:53 AM,34.0,26.1,73,30.00,10.0,NNW,5.8,-,N/A,,Clear,330,2013-04-24 07:53:00
3:53 AM,34.0,25.0,70,30.01,10.0,NW,4.6,-,N/A,,Clear,320,2013-04-24 08:53:00
4:53 AM,33.8,24.8,70,29.99,10.0,NW,5.8,-,N/A,,Clear,310,2013-04-24 09:53:00
5:53 AM,34.0,25.0,70,30.03,10.0,NW,5.8,-,N/A,,Clear,320,2013-04-24 10:53:00
6:53 AM,34.0,26.1,73,30.04,10.0,Calm,Calm,-,N/A,,Clear,0,2013-04-24 11:53:00
7:53 AM,34.0,25.0,70,30.06,10.0,WNW,4.6,-,N/A,,Clear,290,2013-04-24 12:53:00
8:53 AM,39.0,25.0,57,30.06,10.0,WNW,6.9,-,N/A,,Clear,300,2013-04-24 13:53:00
9:53 AM,42.1,24.1,49,30.06,10.0,NNW,9.2,-,N/A,,Clear,330,2013-04-24 14:53:00
10:53 AM,44.1,19.0,37,30.05,10.0,NW,11.5,-,N/A,,Partly Cloudy,310,2013-04-24 15:53:00
11:53 AM,46.9,19.9,34,30.04,10.0,NW,11.5,17.3,N/A,,Partly Cloudy,310,2013-04-24 16:53:00
12:53 PM,48.0,18.0,30,30.02,10.0,WNW,11.5,18.4,N/A,,Clear,290,2013-04-24 17:53:00
1:53 PM,50.0,19.0,29,30.02,10.0,West,13.8,20.7,N/A,,Partly Cloudy,270,2013-04-24 18:53:00
2:53 PM,51.1,18.0,27,30.01,10.0,WNW,9.2,20.7,N/A,,Partly Cloudy,290,2013-04-24 19:53:00
3:53 PM,51.1,21.0,31,30.01,10.0,WNW,8.1,-,N/A,,Partly Cloudy,290,2013-04-24 20:53:00
4:53 PM,52.0,19.9,28,30.01,10.0,Variable,6.9,18.4,N/A,,Partly Cloudy,0,2013-04-24 21:53:00
5:53 PM,52.0,19.0,27,30.01,10.0,WNW,10.4,-,N/A,,Partly Cloudy,290,2013-04-24 22:53:00
6:53 PM,50.0,25.0,38,30.01,10.0,Variable,5.8,-,N/A,,Scattered Clouds,0,2013-04-24 23:53:00
7:53 PM,48.0,27.0,44,30.02,10.0,Variable,5.8,-,N/A,,Scattered Clouds,0,2013-04-25 00:53:00
8:53 PM,48.0,26.1,42,30.03,10.0,SW,6.9,-,N/A,,Scattered Clouds,220,2013-04-25 01:53:00
9:53 PM,46.9,26.1,44,30.02,10.0,South,9.2,-,N/A,,Scattered Clouds,180,2013-04-25 02:53:00
10:53 PM,46.0,28.0,50,30.02,10.0,SSW,10.4,-,N/A,,Mostly Cloudy,200,2013-04-25 03:53:00
11:53 PM,46.0,27.0,47,30.01,10.0,West,8.1,-,N/A,,Overcast,260,2013-04-25 04:53:00